^^
Daily Summary for December 21, 2021 Units:  Both    English   Metric
Daily Weekly Monthly Yearly Custom
  High: Low: Average:
Temperature: 56.0 °F /  13.3 °C 30.0 °F /  -1.1 °C 40.3 °F /  4.6 °C
Dew Point: 39.0 °F /  3.9 °C 26.0 °F /  -3.3 °C 30.6 °F /  -0.8 °C
Humidity: 90% 35% 72%
Wind Speed: 11mph /  17.7km/h - 1.8mph /  2.9km/h
Wind Gust: 10mph /  16.1km/h - -
Wind- - ESE
Pressure: 30.3 in /  1026 hPa 30.2 in /  1022.6 hPa -
Precipitation: 0.000 in /  0 mm    
Historical Graphs
 
 
Tabular Data for December 21, 2021
Time Temperature Dew Point Pressure Wind Wind Speed Wind Gust Humidity Rainfall Rate (Hourly) solar
00:04 36.0 °F /  2.2 °C 32.0 °F /  0 °C 30.3in /  1026hPa Calm     87% 0.000in /  0mm 0.00 W/m2
00:09 36.0 °F /  2.2 °C 32.0 °F /  0 °C 30.3in /  1026hPa Calm     87% 0.000in /  0mm 0.00 W/m2
00:14 36.0 °F /  2.2 °C 32.0 °F /  0 °C 30.3in /  1026hPa Calm     87% 0.000in /  0mm 0.00 W/m2
00:19 36.0 °F /  2.2 °C 32.0 °F /  0 °C 30.3in /  1026hPa Calm     87% 0.000in /  0mm 0.00 W/m2
00:24 36.0 °F /  2.2 °C 32.0 °F /  0 °C 30.3in /  1026hPa Calm     87% 0.000in /  0mm 0.00 W/m2
00:29 36.0 °F /  2.2 °C 32.0 °F /  0 °C 30.3in /  1026hPa Calm     87% 0.000in /  0mm 0.00 W/m2
00:34 36.0 °F /  2.2 °C 32.0 °F /  0 °C 30.3in /  1026hPa Calm     87% 0.000in /  0mm 0.00 W/m2
00:39 35.0 °F /  1.7 °C 32.0 °F /  0 °C 30.3in /  1026hPa Calm     87% 0.000in /  0mm 0.00 W/m2
00:44 35.0 °F /  1.7 °C 32.0 °F /  0 °C 30.3in /  1026hPa Calm     86% 0.000in /  0mm 0.00 W/m2
00:49 35.0 °F /  1.7 °C 31.0 °F /  -0.6 °C 30.3in /  1026hPa Calm     87% 0.000in /  0mm 0.00 W/m2
00:54 35.0 °F /  1.7 °C 31.0 °F /  -0.6 °C 30.3in /  1026hPa Calm     87% 0.000in /  0mm 0.00 W/m2
00:59 35.0 °F /  1.7 °C 31.0 °F /  -0.6 °C 30.3in /  1026hPa Calm     87% 0.000in /  0mm 0.00 W/m2
01:04 35.0 °F /  1.7 °C 31.0 °F /  -0.6 °C 30.3in /  1026hPa Calm     87% 0.000in /  0mm 0.00 W/m2
01:09 34.0 °F /  1.1 °C 31.0 °F /  -0.6 °C 30.3in /  1026hPa Calm     87% 0.000in /  0mm 0.00 W/m2
01:14 34.0 °F /  1.1 °C 31.0 °F /  -0.6 °C 30.3in /  1026hPa Calm     87% 0.000in /  0mm 0.00 W/m2
01:19 34.0 °F /  1.1 °C 31.0 °F /  -0.6 °C 30.3in /  1026hPa Calm     87% 0.000in /  0mm 0.00 W/m2
01:24 34.0 °F /  1.1 °C 31.0 °F /  -0.6 °C 30.3in /  1026hPa Calm     87% 0.000in /  0mm 0.00 W/m2
01:29 34.0 °F /  1.1 °C 30.0 °F /  -1.1 °C 30.3in /  1026hPa Calm     87% 0.000in /  0mm 0.00 W/m2
01:34 34.0 °F /  1.1 °C 30.0 °F /  -1.1 °C 30.3in /  1026hPa Calm     87% 0.000in /  0mm 0.00 W/m2
01:39 34.0 °F /  1.1 °C 30.0 °F /  -1.1 °C 30.3in /  1026hPa Calm     87% 0.000in /  0mm 0.00 W/m2
01:44 33.0 °F /  0.6 °C 30.0 °F /  -1.1 °C 30.3in /  1026hPa Calm     87% 0.000in /  0mm 0.00 W/m2
01:49 33.0 °F /  0.6 °C 30.0 °F /  -1.1 °C 30.3in /  1026hPa Calm     87% 0.000in /  0mm 0.00 W/m2
01:54 33.0 °F /  0.6 °C 30.0 °F /  -1.1 °C 30.3in /  1026hPa Calm     87% 0.000in /  0mm 0.00 W/m2
01:59 33.0 °F /  0.6 °C 29.0 °F /  -1.7 °C 30.3in /  1026hPa Calm     87% 0.000in /  0mm 0.00 W/m2
02:04 33.0 °F /  0.6 °C 29.0 °F /  -1.7 °C 30.3in /  1026hPa Calm     87% 0.000in /  0mm 0.00 W/m2
02:09 33.0 °F /  0.6 °C 29.0 °F /  -1.7 °C 30.3in /  1026hPa Calm     87% 0.000in /  0mm 0.00 W/m2
02:14 32.0 °F /  0 °C 29.0 °F /  -1.7 °C 30.3in /  1026hPa Calm     87% 0.000in /  0mm 0.00 W/m2
02:19 32.0 °F /  0 °C 29.0 °F /  -1.7 °C 30.3in /  1026hPa Calm     87% 0.000in /  0mm 0.00 W/m2
02:24 32.0 °F /  0 °C 29.0 °F /  -1.7 °C 30.3in /  1026hPa Calm     87% 0.000in /  0mm 0.00 W/m2
02:29 32.0 °F /  0 °C 28.0 °F /  -2.2 °C 30.3in /  1026hPa Calm     87% 0.000in /  0mm 0.00 W/m2
02:34 32.0 °F /  0 °C 28.0 °F /  -2.2 °C 30.3in /  1026hPa Calm     87% 0.000in /  0mm 0.00 W/m2
02:39 31.0 °F /  -0.6 °C 28.0 °F /  -2.2 °C 30.3in /  1026hPa Calm     87% 0.000in /  0mm 0.00 W/m2
02:44 31.0 °F /  -0.6 °C 28.0 °F /  -2.2 °C 30.3in /  1026hPa Calm     87% 0.000in /  0mm 0.00 W/m2
02:49 31.0 °F /  -0.6 °C 28.0 °F /  -2.2 °C 30.3in /  1026hPa Calm     87% 0.000in /  0mm 0.00 W/m2
02:54 31.0 °F /  -0.6 °C 28.0 °F /  -2.2 °C 30.3in /  1026hPa Calm     87% 0.000in /  0mm 0.00 W/m2
02:59 31.0 °F /  -0.6 °C 28.0 °F /  -2.2 °C 30.3in /  1026hPa Calm     88% 0.000in /  0mm 0.00 W/m2
03:04 31.0 °F /  -0.6 °C 28.0 °F /  -2.2 °C 30.3in /  1026hPa Calm     88% 0.000in /  0mm 0.00 W/m2
03:09 31.0 °F /  -0.6 °C 28.0 °F /  -2.2 °C 30.3in /  1026hPa Calm     88% 0.000in /  0mm 0.00 W/m2
03:14 31.0 °F /  -0.6 °C 28.0 °F /  -2.2 °C 30.3in /  1026hPa Calm     88% 0.000in /  0mm 0.00 W/m2
03:19 31.0 °F /  -0.6 °C 28.0 °F /  -2.2 °C 30.3in /  1026hPa Calm     89% 0.000in /  0mm 0.00 W/m2
03:24 31.0 °F /  -0.6 °C 28.0 °F /  -2.2 °C 30.3in /  1026hPa Calm     89% 0.000in /  0mm 0.00 W/m2
03:29 31.0 °F /  -0.6 °C 28.0 °F /  -2.2 °C 30.3in /  1026hPa Calm     89% 0.000in /  0mm 0.00 W/m2
03:34 31.0 °F /  -0.6 °C 28.0 °F /  -2.2 °C 30.3in /  1026hPa Calm     89% 0.000in /  0mm 0.00 W/m2
03:39 31.0 °F /  -0.6 °C 28.0 °F /  -2.2 °C 30.3in /  1026hPa Calm     89% 0.000in /  0mm 0.00 W/m2
03:44 30.0 °F /  -1.1 °C 28.0 °F /  -2.2 °C 30.3in /  1026hPa Calm     89% 0.000in /  0mm 0.00 W/m2
03:49 30.0 °F /  -1.1 °C 27.0 °F /  -2.8 °C 30.3in /  1026hPa Calm     89% 0.000in /  0mm 0.00 W/m2
03:54 30.0 °F /  -1.1 °C 27.0 °F /  -2.8 °C 30.3in /  1026hPa Calm     89% 0.000in /  0mm 0.00 W/m2
03:59 30.0 °F /  -1.1 °C 27.0 °F /  -2.8 °C 30.3in /  1026hPa Calm     89% 0.000in /  0mm 0.00 W/m2
04:04 30.0 °F /  -1.1 °C 27.0 °F /  -2.8 °C 30.3in /  1026hPa Calm     89% 0.000in /  0mm 0.00 W/m2
04:09 30.0 °F /  -1.1 °C 27.0 °F /  -2.8 °C 30.3in /  1026hPa Calm     90% 0.000in /  0mm 0.00 W/m2
04:14 30.0 °F /  -1.1 °C 27.0 °F /  -2.8 °C 30.3in /  1026hPa Calm     90% 0.000in /  0mm 0.00 W/m2
04:19 30.0 °F /  -1.1 °C 27.0 °F /  -2.8 °C 30.3in /  1026hPa NNE 2mph /  3.2km/h   90% 0.000in /  0mm 0.00 W/m2
04:24 30.0 °F /  -1.1 °C 27.0 °F /  -2.8 °C 30.3in /  1026hPa Calm   2mph /  3.2km/h 90% 0.000in /  0mm 0.00 W/m2
04:29 30.0 °F /  -1.1 °C 28.0 °F /  -2.2 °C 30.3in /  1026hPa NNE 2mph /  3.2km/h   90% 0.000in /  0mm 0.00 W/m2
04:34 30.0 °F /  -1.1 °C 28.0 °F /  -2.2 °C 30.2in /  1022.6hPa Calm   2mph /  3.2km/h 90% 0.000in /  0mm 0.00 W/m2
04:39 30.0 °F /  -1.1 °C 28.0 °F /  -2.2 °C 30.2in /  1022.6hPa Calm     90% 0.000in /  0mm 0.00 W/m2
04:44 30.0 °F /  -1.1 °C 28.0 °F /  -2.2 °C 30.2in /  1022.6hPa Calm     90% 0.000in /  0mm 0.00 W/m2
04:49 30.0 °F /  -1.1 °C 28.0 °F /  -2.2 °C 30.2in /  1022.6hPa Calm     90% 0.000in /  0mm 0.00 W/m2
04:54 31.0 °F /  -0.6 °C 28.0 °F /  -2.2 °C 30.2in /  1022.6hPa Calm     90% 0.000in /  0mm 0.00 W/m2
04:59 31.0 °F /  -0.6 °C 28.0 °F /  -2.2 °C 30.2in /  1022.6hPa Calm     89% 0.000in /  0mm 0.00 W/m2
05:04 31.0 °F /  -0.6 °C 28.0 °F /  -2.2 °C 30.3in /  1026hPa Calm     89% 0.000in /  0mm 0.00 W/m2
05:08 31.0 °F /  -0.6 °C 28.0 °F /  -2.2 °C 30.3in /  1026hPa Calm     89% 0.000in /  0mm 0.00 W/m2
05:14 31.0 °F /  -0.6 °C 28.0 °F /  -2.2 °C 30.3in /  1026hPa Calm     88% 0.000in /  0mm 0.00 W/m2
05:19 31.0 °F /  -0.6 °C 28.0 °F /  -2.2 °C 30.3in /  1026hPa Calm     88% 0.000in /  0mm 0.00 W/m2
05:24 31.0 °F /  -0.6 °C 28.0 °F /  -2.2 °C 30.3in /  1026hPa Calm     87% 0.000in /  0mm 0.00 W/m2
05:29 31.0 °F /  -0.6 °C 28.0 °F /  -2.2 °C 30.3in /  1026hPa Calm     87% 0.000in /  0mm 0.00 W/m2
05:34 31.0 °F /  -0.6 °C 28.0 °F /  -2.2 °C 30.3in /  1026hPa Calm     87% 0.000in /  0mm 0.00 W/m2
05:39 31.0 °F /  -0.6 °C 28.0 °F /  -2.2 °C 30.3in /  1026hPa Calm     87% 0.000in /  0mm 0.00 W/m2
05:44 31.0 °F /  -0.6 °C 28.0 °F /  -2.2 °C 30.3in /  1026hPa Calm     86% 0.000in /  0mm 0.00 W/m2
05:49 31.0 °F /  -0.6 °C 28.0 °F /  -2.2 °C 30.3in /  1026hPa Calm     86% 0.000in /  0mm 0.00 W/m2
05:54 31.0 °F /  -0.6 °C 27.0 °F /  -2.8 °C 30.3in /  1026hPa Calm     85% 0.000in /  0mm 0.00 W/m2
05:59 31.0 °F /  -0.6 °C 27.0 °F /  -2.8 °C 30.3in /  1026hPa Calm     85% 0.000in /  0mm 0.00 W/m2
06:04 31.0 °F /  -0.6 °C 27.0 °F /  -2.8 °C 30.3in /  1026hPa Calm     84% 0.000in /  0mm 0.00 W/m2
06:09 31.0 °F /  -0.6 °C 27.0 °F /  -2.8 °C 30.3in /  1026hPa Calm     84% 0.000in /  0mm 0.00 W/m2
06:14 31.0 °F /  -0.6 °C 27.0 °F /  -2.8 °C 30.3in /  1026hPa Calm     84% 0.000in /  0mm 0.00 W/m2
06:19 31.0 °F /  -0.6 °C 27.0 °F /  -2.8 °C 30.3in /  1026hPa Calm     84% 0.000in /  0mm 0.00 W/m2
06:24 31.0 °F /  -0.6 °C 27.0 °F /  -2.8 °C 30.3in /  1026hPa Calm     83% 0.000in /  0mm 0.00 W/m2
06:29 31.0 °F /  -0.6 °C 27.0 °F /  -2.8 °C 30.3in /  1026hPa Calm     83% 0.000in /  0mm 0.00 W/m2
06:34 31.0 °F /  -0.6 °C 26.0 °F /  -3.3 °C 30.3in /  1026hPa Calm     83% 0.000in /  0mm 0.00 W/m2
06:39 31.0 °F /  -0.6 °C 26.0 °F /  -3.3 °C 30.3in /  1026hPa Calm     82% 0.000in /  0mm 0.00 W/m2
06:44 31.0 °F /  -0.6 °C 26.0 °F /  -3.3 °C 30.3in /  1026hPa Calm     82% 0.000in /  0mm 0.00 W/m2
06:49 31.0 °F /  -0.6 °C 26.0 °F /  -3.3 °C 30.3in /  1026hPa Calm     82% 0.000in /  0mm 0.00 W/m2
06:54 31.0 °F /  -0.6 °C 26.0 °F /  -3.3 °C 30.3in /  1026hPa Calm     83% 0.000in /  0mm 0.00 W/m2
06:59 31.0 °F /  -0.6 °C 26.0 °F /  -3.3 °C 30.3in /  1026hPa Calm     83% 0.000in /  0mm 0.00 W/m2
07:04 31.0 °F /  -0.6 °C 26.0 °F /  -3.3 °C 30.3in /  1026hPa Calm     83% 0.000in /  0mm 0.00 W/m2
07:09 31.0 °F /  -0.6 °C 26.0 °F /  -3.3 °C 30.3in /  1026hPa Calm     82% 0.000in /  0mm 0.00 W/m2
07:14 31.0 °F /  -0.6 °C 26.0 °F /  -3.3 °C 30.3in /  1026hPa Calm     82% 0.000in /  0mm 0.00 W/m2
07:19 31.0 °F /  -0.6 °C 26.0 °F /  -3.3 °C 30.3in /  1026hPa Calm     82% 0.000in /  0mm 0.00 W/m2
07:24 31.0 °F /  -0.6 °C 26.0 °F /  -3.3 °C 30.3in /  1026hPa Calm     82% 0.000in /  0mm 0.00 W/m2
07:29 31.0 °F /  -0.6 °C 26.0 °F /  -3.3 °C 30.3in /  1026hPa Calm     82% 0.000in /  0mm 5.00 W/m2
07:34 31.0 °F /  -0.6 °C 27.0 °F /  -2.8 °C 30.3in /  1026hPa NNE 2mph /  3.2km/h   82% 0.000in /  0mm 9.00 W/m2
07:39 32.0 °F /  0 °C 27.0 °F /  -2.8 °C 30.3in /  1026hPa Calm   2mph /  3.2km/h 82% 0.000in /  0mm 16.00 W/m2
07:44 32.0 °F /  0 °C 27.0 °F /  -2.8 °C 30.3in /  1026hPa Calm     82% 0.000in /  0mm 21.00 W/m2
07:49 32.0 °F /  0 °C 27.0 °F /  -2.8 °C 30.3in /  1026hPa Calm     82% 0.000in /  0mm 28.00 W/m2
07:54 32.0 °F /  0 °C 27.0 °F /  -2.8 °C 30.3in /  1026hPa Calm     82% 0.000in /  0mm 35.00 W/m2
07:59 32.0 °F /  0 °C 27.0 °F /  -2.8 °C 30.3in /  1026hPa Calm     82% 0.000in /  0mm 44.00 W/m2
08:04 33.0 °F /  0.6 °C 28.0 °F /  -2.2 °C 30.3in /  1026hPa Calm     83% 0.000in /  0mm 49.00 W/m2
08:09 33.0 °F /  0.6 °C 28.0 °F /  -2.2 °C 30.3in /  1026hPa Calm     83% 0.000in /  0mm 58.00 W/m2
08:14 33.0 °F /  0.6 °C 29.0 °F /  -1.7 °C 30.3in /  1026hPa Calm     84% 0.000in /  0mm 72.00 W/m2
08:19 34.0 °F /  1.1 °C 29.0 °F /  -1.7 °C 30.3in /  1026hPa Calm     84% 0.000in /  0mm 83.00 W/m2
08:24 34.0 °F /  1.1 °C 30.0 °F /  -1.1 °C 30.3in /  1026hPa Calm     85% 0.000in /  0mm 84.00 W/m2
08:29 34.0 °F /  1.1 °C 30.0 °F /  -1.1 °C 30.3in /  1026hPa Calm     85% 0.000in /  0mm 90.00 W/m2
08:34 35.0 °F /  1.7 °C 30.0 °F /  -1.1 °C 30.3in /  1026hPa Calm     83% 0.000in /  0mm 95.00 W/m2
08:39 35.0 °F /  1.7 °C 30.0 °F /  -1.1 °C 30.3in /  1026hPa Calm     82% 0.000in /  0mm 104.00 W/m2
08:44 36.0 °F /  2.2 °C 30.0 °F /  -1.1 °C 30.3in /  1026hPa Calm     79% 0.000in /  0mm 104.00 W/m2
08:49 37.0 °F /  2.8 °C 29.0 °F /  -1.7 °C 30.3in /  1026hPa Calm     74% 0.000in /  0mm 123.00 W/m2
08:54 38.0 °F /  3.3 °C 31.0 °F /  -0.6 °C 30.3in /  1026hPa Calm     76% 0.000in /  0mm 128.00 W/m2
08:59 38.0 °F /  3.3 °C 31.0 °F /  -0.6 °C 30.3in /  1026hPa Calm     76% 0.000in /  0mm 132.00 W/m2
09:04 39.0 °F /  3.9 °C 29.0 °F /  -1.7 °C 30.3in /  1026hPa NNE 2mph /  3.2km/h   69% 0.000in /  0mm 107.00 W/m2
09:09 40.0 °F /  4.4 °C 30.0 °F /  -1.1 °C 30.3in /  1026hPa Calm   2mph /  3.2km/h 68% 0.000in /  0mm 107.00 W/m2
09:14 40.0 °F /  4.4 °C 31.0 °F /  -0.6 °C 30.3in /  1026hPa Calm     69% 0.000in /  0mm 88.00 W/m2
09:19 41.0 °F /  5 °C 32.0 °F /  0 °C 30.3in /  1026hPa ESE 6mph /  9.7km/h 4mph /  6.4km/h 70% 0.000in /  0mm 83.00 W/m2
09:24 42.0 °F /  5.6 °C 31.0 °F /  -0.6 °C 30.3in /  1026hPa ESE 6mph /  9.7km/h 6mph /  9.7km/h 67% 0.000in /  0mm 181.00 W/m2
09:29 42.0 °F /  5.6 °C 31.0 °F /  -0.6 °C 30.3in /  1026hPa ESE 2mph /  3.2km/h 6mph /  9.7km/h 63% 0.000in /  0mm 288.00 W/m2
09:34 43.0 °F /  6.1 °C 30.0 °F /  -1.1 °C 30.3in /  1026hPa ESE 2mph /  3.2km/h 2mph /  3.2km/h 62% 0.000in /  0mm 360.00 W/m2
09:39 43.0 °F /  6.1 °C 31.0 °F /  -0.6 °C 30.3in /  1026hPa Calm   2mph /  3.2km/h 63% 0.000in /  0mm 345.00 W/m2
09:44 44.0 °F /  6.7 °C 32.0 °F /  0 °C 30.3in /  1026hPa ESE 2mph /  3.2km/h 1mph /  1.6km/h 64% 0.000in /  0mm 387.00 W/m2
09:49 44.0 °F /  6.7 °C 32.0 °F /  0 °C 30.3in /  1026hPa South 7mph /  11.3km/h 3mph /  4.8km/h 64% 0.000in /  0mm 403.00 W/m2
09:54 44.0 °F /  6.7 °C 31.0 °F /  -0.6 °C 30.3in /  1026hPa SSW 4mph /  6.4km/h 7mph /  11.3km/h 59% 0.000in /  0mm 162.00 W/m2
09:59 45.0 °F /  7.2 °C 30.0 °F /  -1.1 °C 30.3in /  1026hPa SSE 9mph /  14.5km/h 8mph /  12.9km/h 56% 0.000in /  0mm 432.00 W/m2
10:04 45.0 °F /  7.2 °C 30.0 °F /  -1.1 °C 30.3in /  1026hPa SSE 11mph /  17.7km/h 10mph /  16.1km/h 55% 0.000in /  0mm 448.00 W/m2
10:09 45.0 °F /  7.2 °C 31.0 °F /  -0.6 °C 30.3in /  1026hPa SE 9mph /  14.5km/h 9mph /  14.5km/h 58% 0.000in /  0mm 454.00 W/m2
10:14 45.0 °F /  7.2 °C 32.0 °F /  0 °C 30.3in /  1026hPa SE 9mph /  14.5km/h 9mph /  14.5km/h 61% 0.000in /  0mm 459.00 W/m2
10:19 45.0 °F /  7.2 °C 33.0 °F /  0.6 °C 30.3in /  1026hPa South 6mph /  9.7km/h 6mph /  9.7km/h 64% 0.000in /  0mm 466.00 W/m2
10:24 45.0 °F /  7.2 °C 34.0 °F /  1.1 °C 30.3in /  1026hPa SE 7mph /  11.3km/h 6mph /  9.7km/h 66% 0.000in /  0mm 475.00 W/m2
10:29 45.0 °F /  7.2 °C 34.0 °F /  1.1 °C 30.3in /  1026hPa SSE 6mph /  9.7km/h 7mph /  11.3km/h 67% 0.000in /  0mm 478.00 W/m2
10:34 45.0 °F /  7.2 °C 35.0 °F /  1.7 °C 30.3in /  1026hPa SE 7mph /  11.3km/h 6mph /  9.7km/h 68% 0.000in /  0mm 483.00 W/m2
10:38 45.0 °F /  7.2 °C 35.0 °F /  1.7 °C 30.3in /  1026hPa SE 7mph /  11.3km/h 7mph /  11.3km/h 68% 0.000in /  0mm 490.00 W/m2
10:43 44.0 °F /  6.7 °C 35.0 °F /  1.7 °C 30.3in /  1026hPa SSE 7mph /  11.3km/h 7mph /  11.3km/h 68% 0.000in /  0mm 494.00 W/m2
10:49 44.0 °F /  6.7 °C 35.0 °F /  1.7 °C 30.3in /  1026hPa SE 9mph /  14.5km/h 7mph /  11.3km/h 69% 0.000in /  0mm 499.00 W/m2
10:54 44.0 °F /  6.7 °C 35.0 °F /  1.7 °C 30.3in /  1026hPa SE 2mph /  3.2km/h 9mph /  14.5km/h 70% 0.000in /  0mm 508.00 W/m2
10:59 44.0 °F /  6.7 °C 35.0 °F /  1.7 °C 30.3in /  1026hPa Calm   2mph /  3.2km/h 70% 0.000in /  0mm 519.00 W/m2
11:04 45.0 °F /  7.2 °C 36.0 °F /  2.2 °C 30.3in /  1026hPa SE 6mph /  9.7km/h 1mph /  1.6km/h 71% 0.000in /  0mm 524.00 W/m2
11:09 45.0 °F /  7.2 °C 36.0 °F /  2.2 °C 30.3in /  1026hPa Calm   6mph /  9.7km/h 71% 0.000in /  0mm 323.00 W/m2
11:14 45.0 °F /  7.2 °C 35.0 °F /  1.7 °C 30.3in /  1026hPa SE 2mph /  3.2km/h   69% 0.000in /  0mm 563.00 W/m2
11:19 45.0 °F /  7.2 °C 35.0 °F /  1.7 °C 30.3in /  1026hPa SE 4mph /  6.4km/h 2mph /  3.2km/h 68% 0.000in /  0mm 563.00 W/m2
11:23 46.0 °F /  7.8 °C 35.0 °F /  1.7 °C 30.3in /  1026hPa SE 4mph /  6.4km/h 3mph /  4.8km/h 67% 0.000in /  0mm 462.00 W/m2
11:29 46.0 °F /  7.8 °C 35.0 °F /  1.7 °C 30.3in /  1026hPa Calm   2mph /  3.2km/h 66% 0.000in /  0mm 462.00 W/m2
11:34 47.0 °F /  8.3 °C 36.0 °F /  2.2 °C 30.3in /  1026hPa SE 2mph /  3.2km/h 2mph /  3.2km/h 66% 0.000in /  0mm 561.00 W/m2
11:39 47.0 °F /  8.3 °C 36.0 °F /  2.2 °C 30.3in /  1026hPa NE 7mph /  11.3km/h 5mph /  8km/h 65% 0.000in /  0mm 547.00 W/m2
11:44 48.0 °F /  8.9 °C 36.0 °F /  2.2 °C 30.3in /  1026hPa NE 6mph /  9.7km/h 7mph /  11.3km/h 64% 0.000in /  0mm 355.00 W/m2
11:49 48.0 °F /  8.9 °C 36.0 °F /  2.2 °C 30.3in /  1026hPa NE 4mph /  6.4km/h 6mph /  9.7km/h 63% 0.000in /  0mm 332.00 W/m2
11:54 49.0 °F /  9.4 °C 36.0 °F /  2.2 °C 30.3in /  1026hPa NE 4mph /  6.4km/h 3mph /  4.8km/h 62% 0.000in /  0mm 446.00 W/m2
11:59 49.0 °F /  9.4 °C 36.0 °F /  2.2 °C 30.3in /  1026hPa NE 2mph /  3.2km/h   61% 0.000in /  0mm 575.00 W/m2
12:04 50.0 °F /  10 °C 35.0 °F /  1.7 °C 30.3in /  1026hPa Calm   2mph /  3.2km/h 58% 0.000in /  0mm 599.00 W/m2
12:09 51.0 °F /  10.6 °C 34.0 °F /  1.1 °C 30.3in /  1026hPa NE 2mph /  3.2km/h   54% 0.000in /  0mm 610.00 W/m2
12:14 51.0 °F /  10.6 °C 34.0 °F /  1.1 °C 30.3in /  1026hPa NE 2mph /  3.2km/h 2mph /  3.2km/h 52% 0.000in /  0mm 592.00 W/m2
12:19 52.0 °F /  11.1 °C 33.0 °F /  0.6 °C 30.3in /  1026hPa SSE 6mph /  9.7km/h 2mph /  3.2km/h 49% 0.000in /  0mm 243.00 W/m2
12:24 52.0 °F /  11.1 °C 32.0 °F /  0 °C 30.3in /  1026hPa ESE 6mph /  9.7km/h 6mph /  9.7km/h 45% 0.000in /  0mm 243.00 W/m2
12:29 53.0 °F /  11.7 °C 32.0 °F /  0 °C 30.3in /  1026hPa East 4mph /  6.4km/h 6mph /  9.7km/h 45% 0.000in /  0mm 594.00 W/m2
12:34 54.0 °F /  12.2 °C 34.0 °F /  1.1 °C 30.3in /  1026hPa ENE 4mph /  6.4km/h 3mph /  4.8km/h 47% 0.000in /  0mm 540.00 W/m2
12:38 54.0 °F /  12.2 °C 31.0 °F /  -0.6 °C 30.3in /  1026hPa NE 6mph /  9.7km/h 3mph /  4.8km/h 42% 0.000in /  0mm 512.00 W/m2
12:44 55.0 °F /  12.8 °C 31.0 °F /  -0.6 °C 30.3in /  1026hPa ENE 9mph /  14.5km/h 6mph /  9.7km/h 40% 0.000in /  0mm 533.00 W/m2
12:49 55.0 °F /  12.8 °C 29.0 °F /  -1.7 °C 30.3in /  1026hPa SE 7mph /  11.3km/h 9mph /  14.5km/h 36% 0.000in /  0mm 533.00 W/m2
12:54 55.0 °F /  12.8 °C 29.0 °F /  -1.7 °C 30.3in /  1026hPa NE 6mph /  9.7km/h 6mph /  9.7km/h 37% 0.000in /  0mm 216.00 W/m2
12:59 55.0 °F /  12.8 °C 31.0 °F /  -0.6 °C 30.3in /  1026hPa NNE 7mph /  11.3km/h 6mph /  9.7km/h 39% 0.000in /  0mm 380.00 W/m2
13:04 55.0 °F /  12.8 °C 29.0 °F /  -1.7 °C 30.2in /  1022.6hPa NE 9mph /  14.5km/h 7mph /  11.3km/h 37% 0.000in /  0mm 236.00 W/m2
13:09 55.0 °F /  12.8 °C 28.0 °F /  -2.2 °C 30.2in /  1022.6hPa East 6mph /  9.7km/h 9mph /  14.5km/h 35% 0.000in /  0mm 243.00 W/m2
13:14 55.0 °F /  12.8 °C 29.0 °F /  -1.7 °C 30.2in /  1022.6hPa ENE 4mph /  6.4km/h 6mph /  9.7km/h 37% 0.000in /  0mm 257.00 W/m2
13:19 55.0 °F /  12.8 °C 29.0 °F /  -1.7 °C 30.2in /  1022.6hPa ESE 4mph /  6.4km/h 3mph /  4.8km/h 37% 0.000in /  0mm 176.00 W/m2
13:24 55.0 °F /  12.8 °C 29.0 °F /  -1.7 °C 30.2in /  1022.6hPa SE 6mph /  9.7km/h 3mph /  4.8km/h 37% 0.000in /  0mm 246.00 W/m2
13:29 55.0 °F /  12.8 °C 30.0 °F /  -1.1 °C 30.2in /  1022.6hPa East 6mph /  9.7km/h 6mph /  9.7km/h 39% 0.000in /  0mm 494.00 W/m2
13:33 55.0 °F /  12.8 °C 30.0 °F /  -1.1 °C 30.2in /  1022.6hPa SE 6mph /  9.7km/h 6mph /  9.7km/h 38% 0.000in /  0mm 496.00 W/m2
13:39 55.0 °F /  12.8 °C 29.0 °F /  -1.7 °C 30.2in /  1022.6hPa ESE 7mph /  11.3km/h 7mph /  11.3km/h 37% 0.000in /  0mm 274.00 W/m2
13:44 55.0 °F /  12.8 °C 30.0 °F /  -1.1 °C 30.2in /  1022.6hPa SE 2mph /  3.2km/h 2mph /  3.2km/h 38% 0.000in /  0mm 431.00 W/m2
13:49 55.0 °F /  12.8 °C 30.0 °F /  -1.1 °C 30.2in /  1022.6hPa SE 6mph /  9.7km/h 2mph /  3.2km/h 38% 0.000in /  0mm 276.00 W/m2
13:54 55.0 °F /  12.8 °C 30.0 °F /  -1.1 °C 30.2in /  1022.6hPa SE 4mph /  6.4km/h 6mph /  9.7km/h 38% 0.000in /  0mm 350.00 W/m2
13:59 55.0 °F /  12.8 °C 29.0 °F /  -1.7 °C 30.2in /  1022.6hPa Calm   3mph /  4.8km/h 37% 0.000in /  0mm 373.00 W/m2
14:04 56.0 °F /  13.3 °C 29.0 °F /  -1.7 °C 30.2in /  1022.6hPa SSE 6mph /  9.7km/h 4mph /  6.4km/h 36% 0.000in /  0mm 496.00 W/m2
14:09 56.0 °F /  13.3 °C 31.0 °F /  -0.6 °C 30.3in /  1026hPa SE 7mph /  11.3km/h 6mph /  9.7km/h 38% 0.000in /  0mm 374.00 W/m2
14:14 56.0 °F /  13.3 °C 31.0 °F /  -0.6 °C 30.3in /  1026hPa South 7mph /  11.3km/h 7mph /  11.3km/h 39% 0.000in /  0mm 301.00 W/m2
14:19 56.0 °F /  13.3 °C 32.0 °F /  0 °C 30.3in /  1026hPa South 11mph /  17.7km/h 7mph /  11.3km/h 40% 0.000in /  0mm 229.00 W/m2
14:24 56.0 °F /  13.3 °C 31.0 °F /  -0.6 °C 30.3in /  1026hPa South 7mph /  11.3km/h 10mph /  16.1km/h 39% 0.000in /  0mm 248.00 W/m2
14:29 56.0 °F /  13.3 °C 32.0 °F /  0 °C 30.3in /  1026hPa South 7mph /  11.3km/h 7mph /  11.3km/h 40% 0.000in /  0mm 169.00 W/m2
14:34 56.0 °F /  13.3 °C 32.0 °F /  0 °C 30.3in /  1026hPa SSE 2mph /  3.2km/h 3mph /  4.8km/h 40% 0.000in /  0mm 139.00 W/m2
14:39 56.0 °F /  13.3 °C 33.0 °F /  0.6 °C 30.3in /  1026hPa SSE 7mph /  11.3km/h 2mph /  3.2km/h 42% 0.000in /  0mm 109.00 W/m2
14:44 55.0 °F /  12.8 °C 33.0 °F /  0.6 °C 30.3in /  1026hPa SE 6mph /  9.7km/h 7mph /  11.3km/h 43% 0.000in /  0mm 62.00 W/m2
14:49 55.0 °F /  12.8 °C 34.0 °F /  1.1 °C 30.3in /  1026hPa SE 2mph /  3.2km/h 6mph /  9.7km/h 45% 0.000in /  0mm 74.00 W/m2
14:54 54.0 °F /  12.2 °C 33.0 °F /  0.6 °C 30.3in /  1026hPa SE 4mph /  6.4km/h 2mph /  3.2km/h 45% 0.000in /  0mm 74.00 W/m2
14:59 54.0 °F /  12.2 °C 34.0 °F /  1.1 °C 30.3in /  1026hPa SE 2mph /  3.2km/h 3mph /  4.8km/h 46% 0.000in /  0mm 74.00 W/m2
15:04 54.0 °F /  12.2 °C 34.0 °F /  1.1 °C 30.3in /  1026hPa SE 2mph /  3.2km/h   47% 0.000in /  0mm 65.00 W/m2
15:09 53.0 °F /  11.7 °C 34.0 °F /  1.1 °C 30.3in /  1026hPa Calm   2mph /  3.2km/h 49% 0.000in /  0mm 83.00 W/m2
15:14 53.0 °F /  11.7 °C 35.0 °F /  1.7 °C 30.3in /  1026hPa Calm     51% 0.000in /  0mm 86.00 W/m2
15:19 53.0 °F /  11.7 °C 36.0 °F /  2.2 °C 30.2in /  1022.6hPa Calm     52% 0.000in /  0mm 81.00 W/m2
15:24 53.0 °F /  11.7 °C 36.0 °F /  2.2 °C 30.3in /  1026hPa Calm     54% 0.000in /  0mm 88.00 W/m2
15:29 52.0 °F /  11.1 °C 36.0 °F /  2.2 °C 30.3in /  1026hPa Calm     53% 0.000in /  0mm 70.00 W/m2
15:34 52.0 °F /  11.1 °C 36.0 °F /  2.2 °C 30.2in /  1022.6hPa Calm     54% 0.000in /  0mm 65.00 W/m2
15:39 52.0 °F /  11.1 °C 35.0 °F /  1.7 °C 30.2in /  1022.6hPa Calm     53% 0.000in /  0mm 49.00 W/m2
15:44 52.0 °F /  11.1 °C 37.0 °F /  2.8 °C 30.3in /  1026hPa Calm     58% 0.000in /  0mm 47.00 W/m2
15:49 52.0 °F /  11.1 °C 38.0 °F /  3.3 °C 30.3in /  1026hPa Calm     59% 0.000in /  0mm 46.00 W/m2
15:54 51.0 °F /  10.6 °C 38.0 °F /  3.3 °C 30.3in /  1026hPa Calm     61% 0.000in /  0mm 47.00 W/m2
15:59 51.0 °F /  10.6 °C 39.0 °F /  3.9 °C 30.2in /  1022.6hPa Calm     62% 0.000in /  0mm 40.00 W/m2
16:04 51.0 °F /  10.6 °C 39.0 °F /  3.9 °C 30.2in /  1022.6hPa Calm     63% 0.000in /  0mm 33.00 W/m2
16:09 51.0 °F /  10.6 °C 39.0 °F /  3.9 °C 30.2in /  1022.6hPa Calm     64% 0.000in /  0mm 25.00 W/m2
16:14 51.0 °F /  10.6 °C 39.0 °F /  3.9 °C 30.2in /  1022.6hPa Calm     65% 0.000in /  0mm 19.00 W/m2
16:19 51.0 °F /  10.6 °C 39.0 °F /  3.9 °C 30.2in /  1022.6hPa Calm     65% 0.000in /  0mm 16.00 W/m2
16:24 50.0 °F /  10 °C 39.0 °F /  3.9 °C 30.2in /  1022.6hPa Calm     66% 0.000in /  0mm 11.00 W/m2
El Dorado Weather
Compliments of Weather Underground - 2 mb